H1 CPF 2 NER 2026 3 4 9 063 01 glonass137 H2 1705501 9137 42939 2026 3 4 0 0 0 2026 3 7 23 45 0 900 1 1 0 0 0 1 H9 10 0 61103 0.00000 0 21816434.912 12960394.040 -2710375.909 10 0 61103 900.00000 0 21996698.466 12932282.335 481970.954 10 0 61103 1800.00000 0 21827766.896 12707880.416 3664970.441 10 0 61103 2700.00000 0 21289765.712 12337814.349 6776887.017 10 0 61103 3600.00000 0 20375307.945 11876698.662 9757374.645 10 0 61103 4500.00000 0 19089963.298 11380637.483 12548642.833 10 0 61103 5400.00000 0 17452200.748 10904676.708 15096572.323 10 0 61103 6300.00000 0 15492806.466 10500314.628 17351759.153 10 0 61103 7200.00000 0 13253800.703 10213175.859 19270467.340 10 0 61103 8100.00000 0 10786897.972 10080946.375 20815472.294 10 0 61103 9000.00000 0 8151573.645 10131656.477 21956779.284 10 0 61103 9900.00000 0 5412816.294 10382383.934 22672203.528 10 0 61103 10800.00000 0 2638657.909 10838432.075 22947801.145 10 0 61103 11700.00000 0 -102416.727 11493017.841 22778142.809 10 0 61103 12600.00000 0 -2744075.216 12327483.683 22166424.728 10 0 61103 13500.00000 0 -5224650.307 13312025.409 21124414.449 10 0 61103 14400.00000 0 -7489456.943 14406906.612 19672231.878 10 0 61103 15300.00000 0 -9492818.078 15564109.868 17837968.894 10 0 61103 16200.00000 0 -11199715.622 16729356.504 15657153.926 10 0 61103 17100.00000 0 -12586998.179 17844410.960 13172070.819 10 0 61103 18000.00000 0 -13644095.431 18849573.404 10430944.306 10 0 61103 18900.00000 0 -14373209.606 19686255.892 7487007.167 10 0 61103 19800.00000 0 -14788976.272 20299533.300 4397466.748 10 0 61103 20700.00000 0 -14917609.113 20640560.881 1222390.922 10 0 61103 21600.00000 0 -14795565.235 20668755.478 -1976464.590 10 0 61103 22500.00000 0 -14467788.019 20353647.182 -5136864.094 10 0 61103 23400.00000 0 -13985602.596 19676321.995 -8197310.617 10 0 61103 24300.00000 0 -13404353.968 18630393.350 -11098250.694 10 0 61103 25200.00000 0 -12780888.714 17222460.347 -13783240.856 10 0 61103 26100.00000 0 -12170987.946 15472032.432 -16200052.164 10 0 61103 27000.00000 0 -11626861.036 13410922.904 -18301690.675 10 0 61103 27900.00000 0 -11194806.898 11082136.147 -20047313.590 10 0 61103 28800.00000 0 -10913142.193 8538294.886 -21403023.153 10 0 61103 29700.00000 0 -10810484.258 5839672.991 -22342523.068 10 0 61103 30600.00000 0 -10904461.234 3051915.797 -22847625.123 10 0 61103 31500.00000 0 -11200903.635 243542.776 -22908596.708 10 0 61103 32400.00000 0 -11693551.099 -2516663.776 -22524343.174 10 0 61103 33300.00000 0 -12364286.301 -5162275.919 -21702422.100 10 0 61103 34200.00000 0 -13183885.775 -7631734.961 -20458889.748 10 0 61103 35100.00000 0 -14113255.716 -9870660.438 -18817983.114 10 0 61103 36000.00000 0 -15105100.496 -11833858.314 -16811644.037 10 0 61103 36900.00000 0 -16105953.505 -13486946.088 -14478894.734 10 0 61103 37800.00000 0 -17058484.767 -14807528.638 -11865076.969 10 0 61103 38700.00000 0 -17903988.165 -15785877.283 -9020969.589 10 0 61103 39600.00000 0 -18584943.563 -16425085.331 -6001801.570 10 0 61103 40500.00000 0 -19047545.963 -16740695.202 -2866179.740 10 0 61103 41400.00000 0 -19244095.188 -16759814.270 325048.026 10 0 61103 42300.00000 0 -19135145.433 -16519757.914 3509971.956 10 0 61103 43200.00000 0 -18691324.098 -16066277.966 6626818.981 10 0 61103 44100.00000 0 -17894743.199 -15451451.990 9615147.557 10 0 61103 45000.00000 0 -16739943.735 -14731322.861 12417015.582 10 0 61103 45900.00000 0 -15234332.900 -13963388.397 14978098.992 10 0 61103 46800.00000 0 -13398095.183 -13204046.798 17248739.759 10 0 61103 47700.00000 0 -11263580.283 -12506105.333 19184903.401 10 0 61103 48600.00000 0 -8874192.385 -11916456.797 20749028.086 10 0 61103 49500.00000 0 -6282825.949 -11474021.141 21910749.505 10 0 61103 50400.00000 0 -3549911.810 -11208038.509 22647488.005 10 0 61103 51300.00000 0 -741153.427 -11136785.211 22944887.065 10 0 61103 52200.00000 0 2074954.176 -11266766.627 22797094.855 10 0 61103 53100.00000 0 4829721.187 -11592421.211 22206883.325 10 0 61103 54000.00000 0 7456869.033 -12096348.547 21185602.205 10 0 61103 54900.00000 0 9895038.649 -12750052.673 19752968.132 10 0 61103 55800.00000 0 12090097.649 -13515170.275 17936692.139 10 0 61103 56700.00000 0 13997151.150 -14345133.055 15771951.717 10 0 61103 57600.00000 0 15582172.939 -15187195.116 13300716.619 10 0 61103 58500.00000 0 16823189.172 -15984740.580 10570940.587 10 0 61103 59400.00000 0 17710965.280 -16679774.407 7635633.943 10 0 61103 60300.00000 0 18249167.454 -17215491.275 4551834.615 10 0 61103 61200.00000 0 18453992.110 -17538813.494 1379497.545 10 0 61103 62100.00000 0 18353279.250 -17602789.947 -1819675.659 10 0 61103 63000.00000 0 17985147.591 -17368753.509 -4983443.459 10 0 61103 63900.00000 0 17396209.719 -16808144.469 -8050243.159 10 0 61103 64800.00000 0 16639443.511 -15903921.545 -10960397.015 10 0 61103 65700.00000 0 15771810.720 -14651499.545 -13657281.225 10 0 61103 66600.00000 0 14851724.369 -13059172.959 -16088434.119 10 0 61103 67500.00000 0 13936472.898 -11148006.533 -18206581.313 10 0 61103 68400.00000 0 13079710.644 -8951196.633 -19970557.479 10 0 61103 69300.00000 0 12329121.130 -6512929.514 -21346106.680 10 0 61103 70200.00000 0 11724351.983 -3886783.835 -22306545.878 10 0 61103 71100.00000 0 11295308.502 -1133743.789 -22833279.164 10 0 61103 72000.00000 0 11060877.438 1680094.594 -22916153.256 10 0 61103 72900.00000 0 11028134.183 4486028.770 -22553648.051 10 0 61103 73800.00000 0 11192066.039 7215362.878 -21752899.129 10 0 61103 74700.00000 0 11535822.460 9802020.694 -20529552.358 10 0 61103 75600.00000 0 12031481.000 12185050.481 -18907453.837 10 0 61103 76500.00000 0 12641296.027 14310918.528 -16918181.497 10 0 61103 77400.00000 0 13319377.097 16135497.002 -14600427.593 10 0 61103 78300.00000 0 14013725.839 17625664.603 -11999244.172 10 0 61103 79200.00000 0 14668545.202 18760454.614 -9165166.125 10 0 61103 80100.00000 0 15226723.525 19531703.836 -6153228.874 10 0 61103 81000.00000 0 15632388.522 19944176.709 -3021899.774 10 0 61103 81900.00000 0 15833423.379 20015160.861 168056.039 10 0 61103 82800.00000 0 15783838.743 19773552.314 3354753.231 10 0 61103 83700.00000 0 15445900.493 19258469.947 6476384.419 10 0 61103 84600.00000 0 14791923.395 18517458.350 9472415.657 10 0 61103 85500.00000 0 13805654.854 17604355.302 12284756.143 10 0 61104 0.00000 0 12483190.227 16576914.078 14858879.463 10 0 61104 900.00000 0 10833379.851 15494280.083 17144876.351 10 0 61104 1800.00000 0 8877711.711 14414429.194 19098415.648 10 0 61104 2700.00000 0 6649671.240 13391673.265 20681600.004 10 0 61104 3600.00000 0 4193605.390 12474338.446 21863696.902 10 0 61104 4500.00000 0 1563136.252 11702712.734 22621732.790 10 0 61104 5400.00000 0 -1180811.224 11107348.484 22940939.073 10 0 61104 6300.00000 0 -3972287.027 10707790.743 22815041.507 10 0 61104 7200.00000 0 -6742806.371 10511784.595 22246387.381 10 0 61104 8100.00000 0 -9423950.540 10514994.841 21245907.673 10 0 61104 9000.00000 0 -11949971.592 10701250.092 19832914.290 10 0 61104 9900.00000 0 -14260293.716 11043301.467 18034735.438 10 0 61104 10800.00000 0 -16301807.956 11504064.608 15886195.230 10 0 61104 11700.00000 0 -18030865.255 12038293.292 13428946.520 10 0 61104 12600.00000 0 -19414884.819 12594614.616 10710668.977 10 0 61104 13500.00000 0 -20433510.701 13117840.115 7784147.238 10 0 61104 14400.00000 0 -21079268.100 13551455.205 4706246.530 10 0 61104 15300.00000 0 -21357691.795 13840181.319 1536805.620 10 0 61104 16200.00000 0 -21286921.380 13932501.605 -1662531.133 10 0 61104 17100.00000 0 -20896780.592 13783042.319 -4829519.339 10 0 61104 18000.00000 0 -20227379.905 13354707.825 -7902533.399 10 0 61104 18900.00000 0 -19327302.047 12620477.522 -10821773.895 10 0 61104 19800.00000 0 -18251447.755 11564787.294 -13530439.052 10 0 61104 20700.00000 0 -17058633.628 10184435.780 -15975836.537 10 0 61104 21600.00000 0 -15809044.307 8488976.049 -18110413.249 10 0 61104 22500.00000 0 -14561647.231 6500575.092 -19892682.698 10 0 61104 23400.00000 0 -13371679.492 4253346.198 -21288031.733 10 0 61104 24300.00000 0 -12288312.941 1792181.503 -22269391.146 10 0 61104 25200.00000 0 -11352595.739 -828867.039 -22817757.515 10 0 61104 26100.00000 0 -10595756.607 -3548591.058 -22922556.701 10 0 61104 27000.00000 0 -10037942.367 -6300930.487 -22581842.592 10 0 61104 27900.00000 0 -9687440.949 -9017484.066 -21802327.875 10 0 61104 28800.00000 0 -9540421.471 -11630121.671 -20599246.797 10 0 61104 29700.00000 0 -9581201.218 -14073590.450 -18996053.032 10 0 61104 30600.00000 0 -9783027.190 -16288007.125 -17023958.800 10 0 61104 31500.00000 0 -10109338.368 -18221133.571 -14721324.374 10 0 61104 32400.00000 0 -10515454.661 -19830341.939 -12132909.886 10 0 61104 33300.00000 0 -10950620.702 -21084188.475 -9309003.965 10 0 61104 34200.00000 0 -11360317.736 -21963531.512 -6304446.106 10 0 61104 35100.00000 0 -11688745.704 -22462148.119 -3177561.790 10 0 61104 36000.00000 0 -11881370.428 -22586824.837 10968.993 10 0 61104 36900.00000 0 -11887428.183 -22356919.832 3199287.765 10 0 61104 37800.00000 0 -11662281.725 -21803415.930 6325555.244 10 0 61104 38700.00000 0 -11169528.178 -20967505.138 9329147.505 10 0 61104 39600.00000 0 -10382769.623 -19898764.797 12151827.445 10 0 61104 40500.00000 0 -9286971.405 -18653002.398 14738869.065 10 0 61104 41400.00000 0 -7879350.473 -17289859.700 17040113.162 10 0 61104 42300.00000 0 -6169755.635 -15870276.621 19010934.416 10 0 61104 43200.00000 0 -4180522.782 -14453920.962 20613101.743 10 0 61104 44100.00000 0 -1945809.838 -13096691.161 21815515.899 10 0 61104 45000.00000 0 489562.273 -11848396.097 22594810.583 10 0 61104 45900.00000 0 3071715.945 -10750708.432 22935805.894 10 0 61104 46800.00000 0 5739705.423 -9835476.554 22831805.588 10 0 61104 47700.00000 0 8427806.516 -9123465.309 22284732.342 10 0 61104 48600.00000 0 11068014.004 -8623577.944 21305098.085 10 0 61104 49500.00000 0 13592644.383 -8332591.748 19911809.354 10 0 61104 50400.00000 0 15936936.889 -8235418.530 18131810.576 10 0 61104 51300.00000 0 18041545.454 -8305879.248 15999571.198 10 0 61104 52200.00000 0 19854818.299 -8507960.434 13556425.530 10 0 61104 53100.00000 0 21334770.252 -8797499.792 10849777.184 10 0 61104 54000.00000 0 22450665.324 -9124229.980 7932182.759 10 0 61104 54900.00000 0 23184143.094 -9434094.181 4860332.088 10 0 61104 55800.00000 0 23529841.374 -9671735.193 1693944.780 10 0 61104 56700.00000 0 23495488.793 -9783052.028 -1505395.255 10 0 61104 57600.00000 0 23101463.327 -9717714.814 -4675444.078 10 0 61104 58500.00000 0 22379835.468 -9431530.302 -7754516.475 10 0 61104 59400.00000 0 21372936.734 -8888556.433 -10682694.518 10 0 61104 60300.00000 0 20131514.368 -8062875.058 -13403001.411 10 0 61104 61200.00000 0 18712550.790 -6939946.444 -15862516.818 10 0 61104 62100.00000 0 17176840.400 -5517487.044 -18013411.285 10 0 61104 63000.00000 0 15586426.559 -3805832.331 -19813879.177 10 0 61104 63900.00000 0 14002007.184 -1827768.425 -21228951.809 10 0 61104 64800.00000 0 12480418.374 382161.267 -22231175.136 10 0 61104 65700.00000 0 11072301.805 2778846.068 -22801139.195 10 0 61104 66600.00000 0 9820053.509 5308245.472 -22927849.586 10 0 61104 67500.00000 0 8756139.427 7909406.157 -22608934.412 10 0 61104 68400.00000 0 7901847.405 10516774.961 -21850683.304 10 0 61104 69300.00000 0 7266526.802 13062711.898 -20667918.349 10 0 61104 70200.00000 0 6847346.227 15480099.146 -19083699.871 10 0 61104 71100.00000 0 6629578.196 17704937.991 -17128873.084 10 0 61104 72000.00000 0 6587397.355 19678826.223 -14841464.603 10 0 61104 72900.00000 0 6685157.439 21351213.550 -12265940.608 10 0 61104 73800.00000 0 6879092.092 22681341.804 -9452341.063 10 0 61104 74700.00000 0 7119366.958 23639789.832 -6455306.812 10 0 61104 75600.00000 0 7352395.744 24209559.478 -3333018.458 10 0 61104 76500.00000 0 7523321.948 24386658.196 -146067.626 10 0 61104 77400.00000 0 7578561.054 24180154.842 3043717.392 10 0 61104 78300.00000 0 7468295.519 23611707.219 6174468.766 10 0 61104 79200.00000 0 7148816.949 22714581.946 9185475.864 10 0 61104 80100.00000 0 6584616.377 21532208.406 12018358.383 10 0 61104 81000.00000 0 5750134.165 20116327.792 14618193.402 10 0 61104 81900.00000 0 4631095.364 18524815.047 16934574.846 10 0 61104 82800.00000 0 3225373.737 16819264.861 18922585.292 10 0 61104 83700.00000 0 1543347.242 15062442.511 20543661.903 10 0 61104 84600.00000 0 -392271.066 13315705.612 21766340.339 10 0 61104 85500.00000 0 -2547121.045 11636503.957 22566862.802 10 0 61105 0.00000 0 -4876375.075 10076061.244 22929638.925 10 0 61105 900.00000 0 -7326363.101 8677333.936 22847550.922 10 0 61105 1800.00000 0 -9836574.094 7473333.868 22322096.702 10 0 61105 2700.00000 0 -12341956.485 6485881.300 21363368.518 10 0 61105 3600.00000 0 -14775420.402 5724842.243 19989866.357 10 0 61105 4500.00000 0 -17070440.059 5187880.824 18228149.133 10 0 61105 5400.00000 0 -19163648.718 4860737.140 16112329.381 10 0 61105 6300.00000 0 -20997318.677 4718018.844 13683420.183 10 0 61105 7200.00000 0 -22521622.978 4724473.239 10988546.043 10 0 61105 8100.00000 0 -23696584.209 4836686.185 8080032.223 10 0 61105 9000.00000 0 -24493628.492 5005135.965 5014389.734 10 0 61105 9900.00000 0 -24896678.973 5176514.895 1851215.566 10 0 61105 10800.00000 0 -24902742.421 5296219.810 -1347970.229 10 0 61105 11700.00000 0 -24521963.857 5310905.067 -4520927.457 10 0 61105 12600.00000 0 -23777146.669 5170988.734 -7605914.432 10 0 61105 13500.00000 0 -22702758.417 4833004.533 -10542897.656 10 0 61105 14400.00000 0 -21343464.455 4261698.488 -13274728.012 10 0 61105 15300.00000 0 -19752251.567 3431780.146 -15748259.580 10 0 61105 16200.00000 0 -17988221.202 2329253.022 -17915388.607 10 0 61105 17100.00000 0 -16114145.728 952266.861 -19733991.956 10 0 61105 18000.00000 0 -14193890.979 -688545.272 -21168746.581 10 0 61105 18900.00000 0 -12289813.648 -2570260.132 -22191814.261 10 0 61105 19800.00000 0 -10460242.761 -4658380.373 -22783378.649 10 0 61105 20700.00000 0 -8757150.549 -6908044.153 -22932024.745 10 0 61105 21600.00000 0 -7224109.626 -9265678.219 -22634954.063 10 0 61105 22500.00000 0 -5894621.071 -11671025.925 -21898031.968 10 0 61105 23400.00000 0 -4790882.128 -14059465.971 -20735666.811 10 0 61105 24300.00000 0 -3923043.706 -16364525.650 -19170523.694 10 0 61105 25200.00000 0 -3288987.130 -18520484.318 -17233078.712 10 0 61105 26100.00000 0 -2874627.931 -20464959.024 -14961022.537 10 0 61105 27000.00000 0 -2654732.263 -22141365.050 -12398524.998 10 0 61105 27900.00000 0 -2594210.216 -23501149.268 -9595374.953 10 0 61105 28800.00000 0 -2649830.240 -24505703.669 -6606012.151 10 0 61105 29700.00000 0 -2772281.396 -25127879.745 -3488469.921 10 0 61105 30600.00000 0 -2908495.549 -25353041.112 -303249.190 10 0 61105 31500.00000 0 -3004130.829 -25179610.938 2887854.198 10 0 61105 32400.00000 0 -3006111.005 -24619091.973 6022946.065 10 0 61105 33300.00000 0 -2865113.176 -23695558.901 9041231.207 10 0 61105 34200.00000 0 -2537898.452 -22444644.779 11884188.204 10 0 61105 35100.00000 0 -1989387.049 -20912064.358 14496699.210 10 0 61105 36000.00000 0 -1194389.957 -19151736.206 16828113.163 10 0 61105 36900.00000 0 -138923.793 -17223582.121 18833222.272 10 0 61105 37800.00000 0 1178947.081 -15191095.487 20473133.481 10 0 61105 38700.00000 0 2748777.534 -13118779.578 21716018.641 10 0 61105 39600.00000 0 4547932.840 -11069561.991 22537729.481 10 0 61105 40500.00000 0 6542297.544 -9102292.206 22922265.916 10 0 61105 41400.00000 0 8687474.087 -7269425.660 22862088.922 10 0 61105 42300.00000 0 10930422.919 -5614990.022 22358271.891 10 0 61105 43200.00000 0 13211477.507 -4172917.657 21420487.259 10 0 61105 44100.00000 0 15466651.946 -2965813.171 20066828.055 10 0 61105 45000.00000 0 17630146.399 -2004207.008 18323467.000 10 0 61105 45900.00000 0 19636947.015 -1286325.946 16224158.758 10 0 61105 46800.00000 0 21425412.564 -798389.824 13809593.927 10 0 61105 47700.00000 0 22939740.021 -515421.856 11126616.324 10 0 61105 48600.00000 0 24132205.883 -402538.226 8227317.967 10 0 61105 49500.00000 0 24965088.948 -416662.295 5168028.793 10 0 61105 50400.00000 0 25412193.241 -508590.623 2008220.599 10 0 61105 51300.00000 0 25459906.422 -625322.775 -1190653.259 10 0 61105 52200.00000 0 25107748.448 -712555.437 -4366359.359 10 0 61105 53100.00000 0 24368386.831 -717234.121 -7457102.640 10 0 61105 54000.00000 0 23267117.463 -590053.081 -10402737.111 10 0 61105 54900.00000 0 21840832.748 -287796.222 -13145944.277 10 0 61105 55800.00000 0 20136520.585 224581.525 -15633355.372 10 0 61105 56700.00000 0 18209357.634 972221.688 -17816594.830 10 0 61105 57600.00000 0 16120477.413 1969053.030 -19653224.226 10 0 61105 58500.00000 0 13934507.372 3216961.906 -21107568.093 10 0 61105 59400.00000 0 11716978.507 4705478.046 -22151405.703 10 0 61105 60300.00000 0 9531716.160 6411989.705 -22764515.700 10 0 61105 61200.00000 0 7438320.983 8302479.779 -22935063.552 10 0 61105 62100.00000 0 5489844.937 10332752.510 -22659824.914 10 0 61105 63000.00000 0 3730758.527 12450099.894 -21944241.239 10 0 61105 63900.00000 0 2195293.085 14595338.493 -20802307.092 10 0 61105 64800.00000 0 906225.916 16705131.922 -19256291.878 10 0 61105 65700.00000 0 -125842.578 18714502.422 -17336301.665 10 0 61105 66600.00000 0 -902691.259 20559426.971 -15079689.837 10 0 61105 67500.00000 0 -1438153.439 22179409.927 -12530328.106 10 0 61105 68400.00000 0 -1757280.256 23519925.103 -9737752.055 10 0 61105 69300.00000 0 -1895028.969 24534625.583 -6756197.818 10 0 61105 70200.00000 0 -1894532.787 25187229.282 -3643548.617 10 0 61105 71100.00000 0 -1805026.289 25453001.774 -460211.607 10 0 61105 72000.00000 0 -1679514.878 25319774.696 2732053.042 10 0 61105 72900.00000 0 -1572287.321 24788457.546 5871328.113 10 0 61105 73800.00000 0 -1536376.883 23873021.744 8896737.117 10 0 61105 74700.00000 0 -1621078.611 22599957.966 11749620.722 10 0 61105 75600.00000 0 -1869627.757 21007229.596 14374669.200 10 0 61105 76500.00000 0 -2317137.524 19142766.087 16720989.353 10 0 61105 77400.00000 0 -2988883.264 17062559.012 18743085.639 10 0 61105 78300.00000 0 -3899005.835 14828439.895 20401737.125 10 0 61105 79200.00000 0 -5049689.204 12505631.889 21664753.915 10 0 61105 80100.00000 0 -6430847.770 10160176.561 22507598.986 10 0 61105 81000.00000 0 -8020337.657 7856342.004 22913863.873 10 0 61105 81900.00000 0 -9784684.615 5654119.121 22875589.303 10 0 61105 82800.00000 0 -11680299.658 3606909.300 22393424.538 10 0 61105 83700.00000 0 -13655133.398 1759498.750 21476622.109 10 0 61105 84600.00000 0 -15650701.643 146403.002 20142867.430 10 0 61105 85500.00000 0 -17604399.188 -1209350.074 18417945.784 10 0 61106 0.00000 0 -19452006.217 -2296948.419 16335252.353 10 0 61106 900.00000 0 -21130284.400 -3118005.614 13935152.531 10 0 61106 1800.00000 0 -22579552.075 -3686242.539 11264206.816 10 0 61106 2700.00000 0 -23746133.958 -4026656.499 8374270.811 10 0 61106 3600.00000 0 -24584579.783 -4174211.636 5321489.939 10 0 61106 4500.00000 0 -25059559.069 -4172106.963 2165207.215 10 0 61106 5400.00000 0 -25147351.296 -4069695.680 -1033194.363 10 0 61106 6300.00000 0 -24836867.887 -3920144.643 -4211491.785 10 0 61106 7200.00000 0 -24130162.040 -3777934.056 -7307840.179 10 0 61106 8100.00000 0 -23042404.255 -3696304.484 -10261984.484 10 0 61106 9000.00000 0 -21601324.017 -3724760.606 -13016440.051 10 0 61106 9900.00000 0 -19846140.923 -3906738.743 -15517618.216 10 0 61106 10800.00000 0 -17826030.134 -4277538.101 -17716874.203 10 0 61106 11700.00000 0 -15598186.778 -4862604.357 -19571456.450 10 0 61106 12600.00000 0 -13225570.735 -5676239.049 -21045338.697 10 0 61106 13500.00000 0 -10774426.510 -6720790.001 -22109918.739 10 0 61106 14400.00000 0 -8311682.047 -7986357.522 -22744570.615 10 0 61106 15300.00000 0 -5902335.090 -9451029.211 -22937040.045 10 0 61106 16200.00000 0 -3606935.811 -11081633.897 -22683676.032 10 0 61106 17100.00000 0 -1479269.998 -12834983.422 -21989494.801 10 0 61106 18000.00000 0 435661.551 -14659550.474 -20868075.389 10 0 61106 18900.00000 0 2103284.497 -16497512.483 -19341289.406 10 0 61106 19800.00000 0 3500646.353 -18287076.315 -17438870.521 10 0 61106 20700.00000 0 4617117.605 -19964986.705 -15197832.260 10 0 61106 21600.00000 0 5454571.074 -21469113.727 -12661745.521 10 0 61106 22500.00000 0 6027033.886 -22741011.273 -9879889.847 10 0 61106 23400.00000 0 6359828.385 -23728339.636 -6906294.974 10 0 61106 24300.00000 0 6488239.746 -24387050.969 -3798691.265 10 0 61106 25200.00000 0 6455767.741 -24683246.291 -617389.440 10 0 61106 26100.00000 0 6312037.504 -24594626.399 2575888.578 10 0 61106 27000.00000 0 6110458.293 -24111476.080 5719204.952 10 0 61106 27900.00000 0 5905729.709 -23237140.523 8751604.190 10 0 61106 28800.00000 0 5751301.046 -21987974.029 11614291.135 10 0 61106 29700.00000 0 5696891.246 -20392763.166 14251766.091 10 0 61106 30600.00000 0 5786174.224 -18491648.291 16612895.408 10 0 61106 31500.00000 0 6054727.235 -16334588.186 18651897.239 10 0 61106 32400.00000 0 6528328.874 -13979431.346 20329223.959 10 0 61106 33300.00000 0 7221678.625 -11489673.557 21612324.831 10 0 61106 34200.00000 0 8137592.301 -8931994.283 22476274.694 10 0 61106 35100.00000 0 9266707.950 -6373673.284 22904257.045 10 0 61106 36000.00000 0 10587715.650 -3879993.732 22887892.421 10 0 61106 36900.00000 0 12068102.871 -1511738.667 22427405.774 10 0 61106 37800.00000 0 13665385.697 677116.272 21531629.322 10 0 61106 38700.00000 0 15328775.961 2641418.847 20217840.246 10 0 61106 39600.00000 0 17001215.980 4346481.853 18511435.592 10 0 61106 40500.00000 0 18621697.062 5769282.629 16445449.653 10 0 61106 41400.00000 0 20127765.656 6899170.907 14059922.159 10 0 61106 42300.00000 0 21458112.694 7738055.761 11401128.515 10 0 61106 43200.00000 0 22555137.676 8300064.217 8520686.224 10 0 61106 44100.00000 0 23367379.529 8610686.242 5474554.253 10 0 61106 45000.00000 0 23851711.396 8705442.559 2321944.629 10 0 61106 45900.00000 0 23975206.108 8628132.105 -875832.433 10 0 61106 46800.00000 0 23716592.654 8428733.929 -4056566.938 10 0 61106 47700.00000 0 23067241.225 8161053.217 -7158366.900 10 0 61106 48600.00000 0 22031634.247 7880212.203 -10120870.886 10 0 61106 49500.00000 0 20627302.714 7640093.384 -12886430.720 10 0 61106 50400.00000 0 18884229.869 7490844.531 -15401240.332 10 0 61106 51300.00000 0 16843746.901 7476552.275 -17616388.034 10 0 61106 52200.00000 0 14556966.865 7633183.709 -19488811.242 10 0 61106 53100.00000 0 12082822.474 7986883.847 -20982134.813 10 0 61106 54000.00000 0 9485789.990 8552701.509 -22067376.776 10 0 61106 54900.00000 0 6833394.365 9333797.807 -22723508.085 10 0 61106 55800.00000 0 4193599.741 10321170.868 -22937855.989 10 0 61106 56700.00000 0 1632193.807 11493908.562 -22706343.834 10 0 61106 57600.00000 0 -789725.561 12819958.709 -22033563.279 10 0 61106 58500.00000 0 -3018057.520 14257384.489 -20932678.101 10 0 61106 59400.00000 0 -5007704.386 15756052.419 -19425161.948 10 0 61106 60300.00000 0 -6724194.512 17259682.200 -17540375.476 10 0 61106 61200.00000 0 -8144855.803 18708172.546 -15314991.295 10 0 61106 62100.00000 0 -9259492.684 20040105.577 -12792278.008 10 0 61106 63000.00000 0 -10070540.027 21195324.878 -10021257.259 10 0 61106 63900.00000 0 -10592689.427 22117479.163 -7055750.200 10 0 61106 64800.00000 0 -10852005.212 22756424.935 -3953331.885 10 0 61106 65700.00000 0 -10884568.947 23070387.384 -774213.916 10 0 61106 66600.00000 0 -10734710.764 23027788.870 2419922.864 10 0 61106 67500.00000 0 -10452903.152 22608668.289 5567122.951 10 0 61106 68400.00000 0 -10093406.802 21805631.722 8606354.853 10 0 61106 69300.00000 0 -9711768.347 20624294.419 11478690.614 10 0 61106 70200.00000 0 -9362275.859 19083195.364 14128443.551 10 0 61106 71100.00000 0 -9095479.494 17213187.674 16504242.469 10 0 61106 72000.00000 0 -8955881.817 15056329.773 18560021.996 10 0 61106 72900.00000 0 -8979895.008 12664322.954 20255910.438 10 0 61106 73800.00000 0 -9194150.954 10096559.563 21558998.618 10 0 61106 74700.00000 0 -9614235.421 7417862.017 22443975.387 10 0 61106 75600.00000 0 -10243899.869 4696005.519 22893618.020 10 0 61106 76500.00000 0 -11074784.617 1999126.107 22899128.315 10 0 61106 77400.00000 0 -12086665.892 -606879.532 22460307.915 10 0 61106 78300.00000 0 -13248217.515 -3060855.729 21585569.220 10 0 61106 79200.00000 0 -14518256.609 -5308688.164 20291781.141 10 0 61106 80100.00000 0 -15847422.413 -7305308.107 18603951.858 10 0 61106 81000.00000 0 -17180219.058 -9016317.899 16554753.786 10 0 61106 81900.00000 0 -18457337.625 -10419170.468 14183898.856 10 0 61106 82800.00000 0 -19618160.677 -11503854.029 11537375.290 10 0 61106 83700.00000 0 -20603344.320 -12273053.633 8666559.775 10 0 61106 84600.00000 0 -21357369.056 -12741783.141 5627221.747 10 0 61106 85500.00000 0 -21830951.480 -12936503.461 2478438.895 99